Wetbulb
52.51 51.09 51.71 51.70 52.90 52.39 51.58 51.48 51.66 51.51 52.28 52.27 52.58 52.47 52.62 52.21 51.93 50.84 50.61 50.88 50.96 51.01 51.43 51.12 51.03 50.91 49.69 49.29 48.67 47.74 46.92 46.17 44.37 46.18 46.95 47.34 48.03 49.27 50.39 50.80 51.95 50.80 53.55
48.91 48.68 48.38 48.48 48.53 48.42 48.82 49.24 50.11 49.97 50.41 50.71 51.82 51.70 51.25 50.87 50.01 49.72 49.71 50.11 49.95 49.59 49.39 48.71 48.84 50.42 47.62 47.48 46.84 46.46 46.66 46.96 45.27 43.71 45.46 45.51 45.46 47.46 47.69 47.94 49.97 52.96 50.41
47.75 47.17 46.86 46.59 46.84 46.50 46.62 47.00 47.67 48.10 48.02 48.33 48.89 49.15 49.55 50.06 49.98 49.66 49.78 49.91 48.46 47.98 48.11 47.80 47.36 47.14 46.25 46.83 46.37 46.25 46.59 46.80 45.90 44.03 43.51 45.23 45.96 46.13 46.52 47.56 47.71 46.97 49.14
46.66 45.62 44.76 44.25 44.16 43.85 44.16 44.25 44.94 45.34 44.92 45.20 45.74 47.01 47.98 48.79 49.36 49.64 49.65 47.85 47.50 49.03 49.20 47.97 47.21 46.91 46.45 46.44 46.15 45.92 46.09 45.62 45.09 44.38 43.84 44.00 44.86 44.96 44.37 44.24 43.80 44.41 44.86
44.65 43.41 42.55 42.96 43.08 42.99 42.67 42.80 43.05 43.21 43.43 44.02 44.63 45.51 45.46 46.46 49.08 48.44 48.29 47.43 47.28 47.75 47.01 47.71 47.49 48.38 50.78 50.34 48.55 47.15 46.55 45.93 45.59 44.69 43.93 44.36 44.31 43.83 43.38 44.96 42.89 43.68 44.57
41.56 41.00 41.57 41.32 41.78 41.11 41.03 41.10 40.99 40.99 41.16 41.86 42.48 43.08 42.35 44.81 46.51 46.90 47.57 45.83 47.83 47.53 47.48 47.41 47.15 48.46 47.56 48.87 49.30 49.63 49.28 46.74 45.19 44.41 44.08 43.71 44.22 45.03 45.70 44.53 42.11 41.44 40.56
39.48 40.38 40.17 39.81 39.48 38.72 39.61 40.03 39.59 39.18 39.17 39.70 40.47 40.70 41.02 42.16 44.24 44.40 46.11 45.95 46.48 47.05 46.92 45.82 45.45 46.73 47.96 47.39 48.05 48.61 48.27 47.91 48.00 46.30 44.72 45.27 44.77 45.80 45.88 45.14 44.54 42.37 42.47
38.07 38.44 38.81 38.09 37.95 37.79 37.57 38.15 37.96 38.14 38.90 41.95 39.44 40.01 40.42 42.69 44.08 43.50 44.62 45.95 46.16 46.13 45.15 44.93 44.62 45.11 46.18 46.87 46.83 46.51 46.81 47.31 47.84 48.08 47.51 47.34 47.26 47.46 46.96 46.50 44.91 45.17 42.96
35.95 36.65 37.29 37.17 36.43 36.53 37.00 37.06 37.26 38.30 40.90 41.54 42.51 41.23 41.72 44.11 43.83 43.22 43.32 44.31 43.58 43.41 44.54 45.62 45.79 45.97 45.69 44.16 45.85 45.34 45.34 45.74 47.34 47.03 46.32 45.33 43.80 43.11 45.38 47.08 45.01 43.95 41.64
35.26 36.25 36.92 36.46 36.08 35.71 35.99 37.18 40.17 40.24 40.30 41.45 42.07 44.00 43.40 42.03 42.66 42.37 42.43 42.63 41.75 42.56 43.88 45.37 46.04 45.97 44.04 42.83 44.28 44.91 44.06 44.83 46.16 46.58 46.74 45.72 44.60 45.02 44.79 45.53 46.08 44.09 43.97
36.53 35.94 36.13 36.26 37.14 38.91 38.78 39.40 39.68 39.76 40.20 40.88 41.51 42.40 42.96 43.40 42.31 41.62 41.57 42.38 41.79 42.86 43.74 44.96 46.72 44.24 42.18 41.45 42.55 44.23 44.10 45.66 45.69 46.28 46.17 46.44 46.87 46.85 46.53 46.31 46.57 45.85 44.15
36.71 35.93 34.52 35.27 37.63 38.37 38.00 38.33 38.79 39.04 39.26 39.83 40.40 41.11 42.73 43.64 43.32 42.55 41.35 41.23 42.96 42.92 43.97 45.26 45.86 43.83 42.63 42.10 41.80 42.23 40.94 41.95 43.56 43.06 43.42 44.09 45.41 46.29 47.34 47.66 47.16 47.09 46.67
36.02 35.61 35.83 36.57 37.36 37.51 37.16 37.12 37.54 38.46 38.55 38.77 39.30 39.87 40.78 42.37 42.96 42.39 41.48 41.03 41.47 42.40 44.68 45.20 43.23 42.12 41.84 43.27 43.31 42.45 42.68 46.92 44.43 42.40 42.53 44.47 46.38 47.50 48.56 48.42 48.96 47.69 46.46
35.51 35.31 35.60 35.56 36.00 36.65 37.17 37.69 37.59 37.98 37.92 38.68 38.67 37.21 37.98 38.68 39.59 41.81 40.62 40.77 41.91 43.92 45.87 46.06 44.56 42.94 43.14 44.77 47.59 53.08 55.25 53.96 48.77 46.47 47.94 51.11 49.92 47.57 47.38 48.62 48.39 49.04 47.88
35.67 35.31 34.99 34.94 34.90 35.09 36.02 36.79 37.33 38.44 38.26 38.07 36.14 36.16 35.16 34.96 38.10 37.92 37.79 39.61 42.34 43.61 41.10 45.75 52.51 51.47 49.75 49.13 49.36 50.24 52.35 55.25 52.37 51.66 51.00 49.51 47.57 47.65 48.26 49.76 50.26 51.36 50.33
33.14 34.23 34.47 34.35 34.45 34.44 34.85 35.19 37.43 37.47 37.86 37.76 36.94 36.10 35.89 36.84 37.67 38.26 39.02 39.11 41.90 40.76 47.12 47.14 46.14 45.62 45.01 45.29 45.46 46.37 48.64 50.46 54.13 52.77 51.30 51.63 49.67 49.73 50.35 52.32 53.24 52.80 51.88
33.31 34.69 34.48 34.61 34.37 33.71 33.97 33.76 33.08 35.78 37.51 36.99 36.09 35.95 35.78 36.20 37.21 37.83 38.86 39.16 42.10 43.34 44.57 43.81 42.54 42.40 42.75 42.89 43.09 44.22 45.69 49.62 53.88 53.97 52.17 52.59 52.41 52.37 51.49 52.01 52.88 51.36 49.67
34.10 34.62 34.41 34.54 34.33 33.58 33.68 33.76 33.52 32.80 32.55 33.44 35.73 35.40 35.18 36.21 36.63 37.14 38.33 41.38 44.22 43.90 43.66 41.20 40.27 40.14 40.09 39.96 40.50 41.84 44.77 47.93 53.08 52.77 52.84 53.59 53.53 54.45 53.36 52.54 52.01 50.48 49.59
34.16 34.46 34.49 34.83 34.39 33.66 33.61 33.30 33.33 32.80 32.61 32.61 33.10 33.88 34.67 35.70 36.10 36.53 37.97 39.96 39.80 40.81 40.95 38.86 39.10 38.45 38.08 38.13 38.66 39.90 42.03 43.77 46.98 55.00 54.77 54.99 55.25 54.39 52.80 52.55 50.90 45.09 47.38
33.36 33.81 33.76 34.18 34.09 33.02 32.41 32.12 32.28 31.91 31.68 31.44 31.49 31.36 32.75 34.34 33.57 34.48 36.10 36.99 38.02 38.72 38.58 38.38 37.31 36.82 36.14 36.05 36.41 37.37 38.46 40.41 42.47 46.44 55.13 54.65 52.77 52.26 51.14 49.86 48.04 46.31 44.76
30.32 30.39 31.37 30.53 29.91 32.14 32.29 30.93 31.66 31.40 30.92 30.49 30.55 31.73 31.39 32.58 32.41 33.04 33.55 34.34 35.09 36.80 37.32 36.01 36.62 35.09 34.43 34.47 34.00 34.41 34.97 37.12 38.74 41.75 51.36 53.99 53.20 51.30 51.09 49.97 48.91 47.66 46.35
30.51 29.46 28.99 27.60 28.43 28.32 30.13 30.91 30.70 30.60 30.31 29.98 29.69 30.94 31.19 31.32 31.08 31.94 32.18 32.97 34.25 35.57 36.19 34.17 33.91 34.12 33.04 32.67 32.41 32.38 32.30 33.16 34.83 37.62 43.08 55.37 54.11 52.83 51.66 50.01 49.47 47.56 45.54
30.40 29.49 28.47 27.79 27.43 27.38 26.37 28.01 28.67 28.73 28.72 28.77 28.78 28.33 28.83 29.69 29.56 29.79 30.85 31.28 33.22 33.70 34.62 33.52 31.71 32.21 32.25 32.39 32.33 31.98 30.74 30.74 32.92 37.10 41.13 55.35 55.03 54.31 53.31 50.79 48.32 45.75 44.06
29.97 29.46 28.05 26.91 26.99 25.45 24.72 26.34 26.05 26.99 27.21 26.90 27.42 27.33 26.92 27.38 27.98 28.29 29.08 30.11 31.11 32.06 33.12 32.91 31.29 31.16 31.22 31.00 31.27 31.27 31.19 31.26 33.81 35.63 43.49 52.75 54.53 52.24 51.65 49.99 47.60 45.40 43.14
27.66 27.73 27.02 25.93 25.14 24.93 25.99 27.11 24.89 24.99 25.41 24.54 25.37 25.89 26.02 26.80 26.48 27.04 27.43 28.37 29.20 30.15 30.62 31.13 31.26 30.87 30.87 30.25 29.84 30.32 30.38 30.59 32.18 33.48 40.95 44.56 47.32 50.93 52.08 49.72 47.82 45.58 43.94
27.79 27.18 26.55 24.81 23.80 23.50 23.87 24.79 24.62 23.92 24.24 23.27 23.59 24.12 23.77 24.52 25.49 25.48 25.56 26.63 27.08 27.96 28.71 29.83 30.01 30.30 30.41 29.84 29.51 29.54 29.96 30.34 31.46 32.98 37.72 40.43 41.25 42.42 44.68 47.74 47.21 45.21 43.98
MSLP
1011.27 1011.39 1011.64 1011.93 1012.17 1012.12 1012.35 1012.56 1012.79 1012.77 1012.71 1012.64 1012.65 1012.67 1012.73 1012.76 1012.77 1012.84 1012.68 1012.50 1012.37 1012.11 1011.86 1011.82 1011.66 1011.41 1011.43 1011.23 1010.96 1010.72 1010.29 1010.09 1009.05 1007.83 1007.91 1007.59 1007.46 1007.07 1006.67 1006.22 1006.03 1005.82 1005.28
1012.21 1012.38 1012.68 1012.67 1012.78 1012.96 1013.18 1013.26 1013.15 1013.09 1012.99 1013.02 1012.91 1012.89 1012.79 1012.61 1012.42 1012.28 1012.34 1012.15 1012.01 1011.77 1011.67 1011.61 1011.46 1011.21 1011.18 1010.88 1010.65 1010.29 1009.90 1009.51 1009.03 1007.71 1007.60 1007.40 1007.28 1006.80 1006.34 1005.97 1005.67 1005.17 1004.93
1012.79 1013.29 1013.43 1013.63 1013.75 1013.93 1013.98 1013.90 1013.74 1013.60 1013.59 1013.48 1013.30 1013.18 1012.97 1012.66 1012.35 1012.14 1012.04 1011.74 1011.54 1011.51 1011.43 1011.39 1011.14 1010.95 1010.62 1010.36 1010.09 1009.74 1009.27 1008.83 1008.42 1007.93 1007.33 1007.19 1006.78 1006.40 1005.96 1005.43 1005.21 1004.69 1004.24
1013.75 1014.00 1014.32 1014.57 1014.66 1014.68 1014.65 1014.56 1014.40 1014.29 1014.17 1013.97 1013.71 1013.49 1013.10 1012.70 1012.35 1012.02 1011.67 1011.52 1011.42 1011.16 1010.95 1010.68 1010.47 1010.31 1010.01 1009.67 1009.29 1008.86 1008.55 1008.23 1007.85 1007.28 1006.58 1006.11 1005.76 1005.47 1005.39 1004.97 1004.37 1004.10 1003.71
1014.61 1014.89 1015.07 1015.08 1014.95 1014.79 1014.72 1014.67 1014.59 1014.34 1014.22 1014.01 1013.78 1013.44 1013.16 1012.73 1012.10 1011.66 1011.45 1011.19 1010.92 1010.50 1010.13 1009.84 1009.68 1009.41 1008.90 1008.53 1008.22 1007.83 1007.57 1007.17 1006.61 1006.11 1005.54 1005.14 1004.85 1004.75 1004.46 1004.11 1003.98 1003.70 1003.52
1015.48 1015.53 1015.43 1015.35 1015.32 1015.29 1015.13 1014.86 1014.72 1014.44 1014.16 1013.89 1013.57 1013.34 1012.93 1012.46 1011.82 1011.47 1011.19 1010.95 1010.41 1009.86 1009.35 1009.02 1008.71 1008.28 1007.90 1007.42 1006.93 1006.53 1006.29 1005.95 1005.54 1005.20 1004.70 1004.37 1003.91 1003.75 1003.55 1003.57 1003.70 1003.61 1003.34
1015.86 1015.65 1015.57 1015.52 1015.70 1015.52 1015.27 1014.93 1014.87 1014.55 1013.95 1013.68 1013.38 1013.07 1012.67 1012.29 1011.70 1011.32 1010.83 1010.37 1009.84 1009.24 1008.92 1008.57 1008.07 1007.42 1006.89 1006.49 1005.95 1005.43 1005.00 1004.61 1004.34 1004.04 1003.56 1003.19 1002.82 1002.63 1002.96 1002.99 1002.96 1002.96 1002.87
1016.06 1016.00 1015.97 1015.95 1015.83 1015.57 1015.32 1014.95 1014.67 1014.31 1013.78 1013.34 1013.28 1012.88 1012.49 1011.87 1011.20 1010.80 1010.33 1009.86 1009.39 1008.99 1008.72 1008.18 1007.58 1006.71 1005.97 1005.58 1005.13 1004.50 1003.77 1003.11 1002.56 1002.22 1002.02 1001.57 1001.49 1001.49 1001.76 1001.83 1001.92 1002.10 1002.22
1016.55 1016.50 1016.41 1016.29 1015.96 1015.72 1015.24 1014.90 1014.55 1014.13 1013.51 1013.26 1012.83 1012.39 1011.97 1011.29 1010.84 1010.44 1010.08 1009.66 1009.19 1008.64 1007.90 1007.20 1006.62 1005.74 1004.51 1004.10 1004.25 1003.41 1002.53 1001.53 1000.92 1000.71 1000.63 1000.55 1000.45 1000.48 1000.78 1001.23 1001.15 1001.60 1001.59
1017.16 1017.03 1016.96 1016.59 1016.16 1015.52 1015.15 1014.97 1014.47 1014.08 1013.72 1013.39 1012.83 1012.13 1011.74 1011.16 1010.55 1010.16 1009.80 1009.41 1008.81 1007.96 1007.15 1006.04 1005.06 1004.43 1003.43 1002.96 1003.13 1002.47 1001.52 1000.10 999.84 999.25 999.09 998.97 999.11 999.23 999.68 1000.13 1000.31 1000.38 1000.87
1017.83 1017.04 1016.86 1016.28 1015.83 1015.51 1015.35 1014.91 1014.56 1014.21 1013.79 1013.32 1012.63 1011.92 1011.25 1010.72 1010.20 1009.72 1009.25 1009.00 1008.42 1007.53 1006.24 1004.92 1003.87 1003.09 1002.45 1001.84 1001.41 1001.18 999.96 998.93 998.44 998.25 997.81 997.70 997.71 997.79 997.99 998.49 999.01 999.27 999.69
1017.49 1017.10 1016.99 1016.61 1016.11 1015.86 1015.55 1015.18 1014.67 1014.18 1013.68 1013.14 1012.49 1011.73 1011.08 1010.49 1009.91 1009.30 1008.71 1008.23 1007.66 1007.09 1005.81 1004.58 1003.20 1001.92 1001.27 1000.59 1000.03 998.95 998.37 997.81 997.20 996.72 996.91 996.58 996.54 996.44 996.68 997.24 997.88 998.32 998.71
1018.05 1017.89 1017.47 1017.00 1016.60 1016.11 1015.67 1015.20 1014.66 1014.22 1013.78 1013.18 1012.58 1011.91 1011.18 1010.37 1009.69 1008.98 1008.19 1007.51 1006.95 1006.34 1005.06 1003.73 1002.64 1001.70 1000.73 999.63 998.18 997.38 996.62 996.17 995.56 995.75 995.47 995.27 995.06 995.19 995.77 996.45 996.95 997.67 998.37
1018.47 1018.08 1017.70 1017.29 1016.72 1016.24 1015.81 1015.34 1014.89 1014.39 1013.90 1013.35 1012.86 1012.33 1011.61 1010.78 1009.86 1008.90 1008.16 1007.20 1006.06 1005.10 1004.22 1003.38 1002.32 1001.21 1000.00 998.93 997.68 996.61 995.16 994.87 994.59 994.42 994.30 994.03 993.79 994.67 995.30 995.86 996.26 997.15 997.89
1018.63 1018.24 1017.88 1017.48 1016.99 1016.49 1016.01 1015.62 1015.06 1014.60 1014.26 1013.82 1013.61 1013.02 1012.35 1011.48 1010.43 1009.61 1008.64 1007.19 1006.09 1005.13 1004.29 1003.29 1002.12 1001.10 1000.09 999.12 998.02 997.05 995.76 994.14 993.48 993.51 993.75 993.84 994.27 994.62 995.07 995.56 996.06 996.49 996.93
1018.90 1018.45 1018.17 1017.69 1017.25 1016.76 1016.32 1015.71 1015.20 1014.90 1014.45 1014.16 1013.96 1013.53 1012.76 1012.06 1010.79 1009.22 1007.76 1006.94 1005.82 1004.78 1004.55 1004.22 1003.35 1002.42 1001.35 1000.27 999.02 997.51 996.01 994.39 992.90 992.45 993.55 993.84 994.34 994.72 995.11 995.40 995.71 995.92 996.50
1019.13 1018.88 1018.43 1018.01 1017.62 1017.28 1016.78 1016.20 1015.53 1014.82 1014.58 1014.29 1013.92 1013.38 1012.78 1011.86 1010.57 1009.24 1008.19 1007.05 1006.48 1005.07 1005.57 1005.51 1004.83 1003.77 1002.68 1001.45 1000.31 998.99 997.26 995.45 993.58 993.10 993.97 994.20 994.46 994.85 995.29 995.73 995.99 996.48 997.34
1019.58 1019.22 1018.80 1018.64 1018.24 1017.74 1017.36 1016.91 1016.39 1015.71 1015.03 1014.43 1013.91 1013.60 1012.88 1011.97 1011.03 1010.13 1009.07 1007.96 1006.88 1006.56 1007.08 1006.86 1006.22 1005.24 1004.01 1002.79 1001.55 1000.12 998.58 997.05 995.61 995.33 995.27 995.14 995.01 995.01 995.60 995.99 996.49 997.39 997.95
1020.03 1019.69 1019.52 1019.25 1018.88 1018.38 1018.04 1017.58 1017.04 1016.51 1016.02 1015.58 1014.90 1013.99 1013.41 1012.72 1011.93 1011.14 1010.41 1009.77 1009.55 1008.90 1008.53 1008.10 1007.49 1006.61 1005.49 1004.19 1003.00 1001.56 1000.38 999.15 997.76 996.72 996.29 996.00 995.88 996.11 996.52 997.00 997.49 998.06 998.56
1020.50 1020.27 1020.15 1019.86 1019.47 1019.02 1018.67 1018.30 1017.81 1017.31 1016.90 1016.54 1016.05 1015.77 1014.98 1013.83 1012.88 1012.54 1012.19 1011.78 1011.16 1010.49 1010.02 1009.29 1008.60 1007.81 1006.85 1005.78 1004.77 1003.60 1001.93 1000.37 999.49 998.55 997.34 997.11 997.23 997.33 997.58 998.06 998.56 999.11 999.75
1021.11 1021.00 1020.91 1020.73 1020.37 1019.90 1019.49 1019.18 1018.79 1018.35 1017.94 1017.53 1017.32 1017.06 1016.48 1015.55 1015.01 1014.42 1013.90 1013.38 1012.79 1012.03 1011.35 1010.80 1009.82 1009.17 1008.25 1007.26 1006.22 1005.12 1004.15 1003.04 1001.37 1000.19 998.74 998.54 998.49 998.58 998.99 999.23 999.75 1000.12 1000.64
1021.76 1021.77 1021.67 1021.58 1021.28 1020.92 1020.52 1020.18 1019.78 1019.33 1018.92 1018.54 1018.22 1017.78 1017.20 1016.50 1016.13 1015.55 1015.15 1014.68 1014.32 1013.71 1012.93 1012.25 1011.42 1010.69 1010.08 1009.20 1008.28 1007.12 1006.00 1004.93 1003.64 1002.22 1001.13 999.95 999.76 999.84 999.98 1000.20 1000.60 1001.05 1001.53
1022.40 1022.34 1022.30 1022.16 1022.06 1021.88 1021.62 1021.27 1020.81 1020.36 1020.00 1019.62 1019.19 1018.71 1018.22 1017.71 1017.39 1016.85 1016.36 1015.95 1015.44 1014.83 1014.12 1013.35 1012.71 1011.83 1011.31 1010.66 1009.97 1009.19 1008.13 1006.95 1005.83 1004.52 1002.87 1000.89 1000.81 1000.63 1001.00 1001.46 1001.73 1002.01 1002.38
1023.11 1023.08 1023.04 1022.96 1022.82 1022.67 1022.41 1022.12 1021.79 1021.49 1021.14 1020.66 1020.13 1019.71 1019.43 1019.07 1018.57 1018.05 1017.48 1016.86 1016.18 1015.74 1015.22 1014.50 1013.98 1013.30 1012.47 1011.79 1011.09 1010.38 1009.64 1008.54 1006.90 1005.41 1003.92 1002.58 1002.07 1002.02 1002.18 1002.42 1002.78 1003.10 1003.40
1023.99 1023.97 1023.87 1023.82 1023.72 1023.56 1023.28 1023.05 1022.87 1022.54 1022.14 1021.74 1021.24 1020.83 1020.49 1020.01 1019.58 1019.07 1018.55 1017.98 1017.28 1016.53 1016.09 1015.57 1015.01 1014.22 1013.41 1012.84 1012.30 1011.46 1010.44 1009.22 1008.07 1006.88 1005.41 1004.61 1003.85 1003.21 1003.27 1003.47 1003.60 1003.78 1003.96
1024.78 1024.76 1024.77 1024.74 1024.70 1024.54 1024.31 1024.01 1023.74 1023.48 1023.14 1022.88 1022.48 1022.01 1021.58 1021.01 1020.48 1020.01 1019.49 1018.89 1018.22 1017.62 1017.00 1016.28 1015.75 1015.03 1014.49 1013.86 1013.04 1012.07 1011.02 1010.08 1009.09 1008.03 1006.99 1006.28 1005.70 1005.22 1004.73 1004.35 1004.24 1004.34 1004.49
Wind_Speed
6 7 7 7 6 5 6 5 3 2 3 3 3 3 3 3 4 4 6 6 7 6 6 6 7 5 4 4 4 4 4 4 12 11 7 5 7 11 10 8 10 9 9
7 8 7 7 7 8 7 7 6 6 5 5 5 4 5 5 6 5 6 6 6 5 5 5 6 4 6 6 5 8 9 9 10 18 10 8 8 8 8 8 9 9 7
8 7 8 8 8 7 7 7 8 8 7 7 6 6 6 6 6 6 6 6 5 6 6 6 7 6 7 8 8 9 9 9 10 10 10 8 7 5 9 9 8 7 7
8 8 9 7 7 6 6 6 6 5 5 6 6 6 7 8 8 8 7 6 6 6 6 7 7 8 10 11 10 10 9 9 9 10 10 9 7 6 4 8 8 5 7
8 8 6 5 5 6 6 6 6 5 5 5 6 5 6 8 7 6 5 6 6 8 8 7 8 12 24 18 10 11 10 10 10 10 11 10 9 8 9 7 8 9 8
6 6 5 6 5 5 5 6 6 6 6 5 6 7 8 7 10 13 8 6 9 8 10 11 12 18 15 19 21 22 18 14 14 12 11 11 13 11 9 8 7 6 8
6 7 7 6 6 6 6 5 6 6 6 6 6 8 9 7 12 13 12 8 8 11 12 11 12 11 15 13 17 21 21 24 25 18 17 15 15 13 10 9 8 6 9
7 7 7 7 6 7 6 6 6 5 6 8 7 8 7 8 13 13 14 10 9 9 10 13 13 15 15 14 14 15 17 17 17 13 16 17 17 14 11 10 11 9 5
8 8 8 8 7 7 7 7 7 7 9 9 9 8 9 9 11 13 11 8 9 10 11 12 13 15 21 19 14 17 18 18 18 25 25 25 21 14 13 7 9 6 8
10 9 8 7 6 7 7 7 8 7 8 8 9 9 10 10 12 12 11 6 8 9 11 13 18 18 24 23 15 16 16 20 16 14 13 16 20 18 22 15 10 8 7
10 8 8 7 7 7 8 8 8 7 7 7 8 8 10 9 10 14 13 7 7 9 10 12 11 17 19 21 22 15 19 18 18 12 11 9 9 10 10 11 13 11 9
9 10 8 8 7 7 8 7 7 7 7 7 8 8 7 9 10 12 14 14 13 10 12 12 14 23 23 27 21 22 22 21 11 10 8 9 8 8 9 10 12 11 10
9 8 7 8 7 7 7 7 6 6 5 6 6 7 8 8 9 14 15 15 17 10 10 16 26 28 27 20 20 20 17 9 8 6 7 9 9 8 8 9 10 10 8
7 7 6 6 8 7 5 5 5 5 6 6 6 7 8 9 9 9 11 10 13 10 11 11 16 21 22 17 13 12 12 6 5 7 6 6 4 6 5 5 5 7 6
6 6 6 5 7 7 6 5 5 6 6 6 7 7 9 9 11 21 16 9 8 11 12 7 10 13 13 13 14 14 13 9 4 4 2 1 3 4 4 5 4 4 5
8 6 6 6 6 7 7 7 7 9 12 10 9 8 9 12 20 20 22 17 17 13 9 11 12 12 13 13 13 14 13 15 12 5 3 2 4 4 4 4 4 5 4
9 7 6 7 7 7 7 7 8 9 10 9 12 15 20 17 20 24 24 18 9 12 13 12 12 13 13 14 14 14 14 14 14 8 5 6 4 5 4 4 6 7 6
10 15 7 7 6 7 7 7 7 8 10 11 14 16 22 21 22 24 23 12 13 17 12 13 12 13 14 14 14 13 14 14 11 9 6 5 4 7 6 7 7 8 7
8 6 7 6 6 8 7 7 7 8 8 9 10 14 20 22 19 23 22 12 12 12 11 12 12 13 14 15 14 15 15 14 12 6 5 6 6 6 7 7 7 8 8
5 13 10 6 6 7 8 8 8 8 9 9 10 12 12 12 13 14 13 12 11 11 12 13 13 13 14 15 14 14 15 16 14 12 8 9 9 9 8 9 8 8 8
5 6 12 7 7 7 7 9 8 8 8 9 9 11 16 10 10 11 11 12 11 11 12 13 12 13 14 15 15 15 14 12 13 13 9 9 9 9 9 8 8 8 7
5 6 6 6 6 8 8 8 8 8 9 9 9 10 16 10 11 10 11 12 11 11 10 11 12 12 13 14 15 15 15 15 14 14 12 7 8 8 8 8 8 7 7
6 6 6 6 7 9 8 8 9 9 9 9 10 10 11 10 11 11 11 11 10 10 11 11 12 13 13 13 13 14 15 16 13 12 12 7 7 7 8 7 6 7 7
7 7 7 6 7 6 4 8 8 11 10 9 9 10 10 10 11 12 11 11 11 11 11 11 12 16 15 15 14 14 14 16 13 14 16 12 8 8 7 7 6 7 7
5 6 7 7 7 7 7 8 8 9 9 9 10 9 10 9 10 11 11 11 11 11 12 12 11 16 19 23 22 24 23 26 21 20 12 14 14 14 8 6 5 5 6
5 6 6 5 6 6 6 8 9 8 10 8 8 8 9 9 9 10 11 11 11 10 13 10 14 20 20 18 22 26 25 26 23 23 14 12 12 10 8 5 6 4 4
Wind_Direction
65 67 62 56 48 67 70 62 54 30 12 356 331 315 295 291 293 279 270 268 262 268 276 262 265 269 267 275 271 264 262 263 283 292 284 276 276 276 275 280 278 281 283
73 72 69 59 44 42 31 15 9 0 353 340 332 328 310 302 298 301 287 281 271 270 273 282 276 283 278 264 256 264 268 270 273 285 290 289 265 268 274 270 274 271 282
69 68 56 52 53 48 40 28 26 21 16 6 0 335 313 300 296 286 277 272 260 279 279 276 269 270 270 270 264 268 271 270 267 267 277 278 264 245 269 272 256 256 266
66 65 63 54 54 48 35 27 21 9 0 343 329 311 310 307 297 284 268 247 259 258 254 251 252 254 267 274 265 263 262 261 259 267 275 274 273 266 249 278 282 282 284
64 59 53 41 39 30 20 5 353 356 338 317 307 301 299 298 284 285 276 275 271 270 260 247 254 270 283 274 272 272 268 269 271 275 277 278 272 260 253 256 269 280 284
61 56 41 28 18 9 353 345 339 326 319 312 306 303 305 299 307 314 315 290 274 282 287 287 283 288 285 277 273 270 265 273 273 270 268 268 270 267 256 258 249 270 287
46 38 30 18 1 352 335 332 319 311 309 303 301 306 301 295 289 292 293 298 290 289 287 290 289 284 282 276 275 272 267 260 251 257 259 257 266 260 262 257 241 238 255
28 17 10 358 348 339 324 322 313 303 306 306 300 294 292 289 290 292 298 296 288 288 285 279 272 275 269 266 273 274 271 265 260 250 249 253 253 256 245 251 254 255 256
18 3 354 344 339 329 328 323 318 315 320 314 308 301 292 292 288 291 301 303 298 290 276 273 267 269 268 263 267 270 271 267 263 257 250 251 253 243 233 246 235 232 262
358 342 329 320 320 324 315 304 312 313 309 310 304 298 303 300 291 296 305 304 296 286 283 271 260 255 271 271 262 269 271 267 269 264 253 245 241 242 236 230 237 221 232
344 345 332 331 329 323 326 321 316 317 315 308 301 301 296 291 296 300 297 295 280 289 286 291 282 272 265 266 266 263 257 268 271 263 253 248 236 226 219 213 216 216 217
348 351 336 331 340 332 321 318 321 325 315 311 312 309 315 317 301 294 294 285 285 283 285 285 283 286 288 289 290 271 260 258 254 242 246 243 234 225 215 202 203 211 217
350 341 336 337 326 329 333 331 328 328 325 318 320 322 321 317 313 307 297 298 297 280 274 276 282 288 288 286 276 273 275 267 250 230 227 237 227 220 195 194 193 197 206
348 343 336 339 346 346 343 339 331 332 334 329 344 336 325 327 317 325 322 311 299 296 295 300 293 283 277 272 295 306 310 272 205 221 225 245 207 162 170 172 181 178 182
354 344 346 353 357 350 353 357 345 351 347 360 1 339 337 325 322 312 302 302 302 303 310 314 351 355 349 348 343 339 330 315 259 225 220 108 118 138 150 163 186 164 172
16 3 357 0 2 359 355 353 355 356 358 3 2 347 336 312 317 334 352 341 339 348 22 5 360 354 350 344 341 334 334 332 324 154 132 108 129 131 128 123 115 132 137
26 6 359 10 6 359 359 5 354 351 5 7 8 3 358 347 352 1 352 344 14 29 27 12 0 353 346 342 343 341 334 340 344 90 83 91 116 128 128 126 121 114 104
30 28 14 6 7 2 3 2 358 3 3 358 7 4 2 1 6 7 4 2 21 31 19 11 0 351 346 345 346 341 340 350 9 59 58 35 32 91 105 103 110 119 116
31 22 15 5 11 18 9 8 5 12 14 7 3 9 5 4 9 17 17 29 20 13 16 9 2 356 349 347 349 346 351 354 360 38 51 48 54 64 79 89 90 88 108
18 26 15 3 5 17 17 13 13 17 18 14 17 11 356 4 18 15 18 14 14 16 7 6 2 359 354 353 352 353 352 358 357 359 36 48 51 56 65 70 66 74 72
28 23 20 18 14 10 20 17 19 19 19 18 16 8 360 15 16 14 12 13 8 10 9 1 1 2 358 357 355 356 358 358 354 354 5 54 57 63 65 68 78 79 85
43 37 31 26 20 20 17 25 18 21 20 18 13 9 9 20 18 15 12 9 8 5 4 7 0 5 3 359 355 354 357 355 355 350 348 34 53 55 58 61 68 72 76
43 42 34 33 34 29 26 19 24 23 21 19 16 13 12 15 14 12 10 4 4 6 4 10 4 4 6 4 2 360 356 350 340 336 339 11 41 60 69 69 58 60 63
43 42 37 32 29 20 13 31 25 27 21 17 16 18 15 9 10 8 4 0 1 7 8 7 7 6 3 7 2 1 359 352 347 347 351 10 35 42 57 71 72 85 86
43 44 39 30 27 22 14 33 26 15 21 15 15 13 8 7 7 7 2 2 1 1 2 6 7 6 8 4 3 2 359 2 3 356 2 10 15 18 34 50 61 70 85
48 47 45 35 34 26 27 34 30 20 25 14 11 7 4 2 3 6 2 0 0 1 0 1 7 10 13 7 360 358 2 6 4 0 4 11 14 11 358 24 52 77 108